Погода Соболево

Погода Соболево : погода сейчас, прогноз погоды и архив. Всё, что Вы хотите узнать о погоде Соболево!

Поиск расширенной информации на нашем сайте:

Другие новости

Новости СМИ2

Главная страница сайта

Новости сайта

03.07.2017

Напоминаем, что на нашем специализированном сайте Метеоцентр.Азия вы можете получить высокодетализированные автоматические прогнозы погоды по пунктам России, СНГ и мира в авиационном формате (включающие направление и скорость ветра, видимость, явления погоды, количество и форму облачности, нижнюю и верхнюю границу облачности).


Погода Соболево - сегодня

Время (UTC), дата Ветер
(°,м/с) 
Видим.   Явления Облачность Т
(°С)
Тd
(°С)
f(%) Тe
(°С)
Pmin
(гПа)
dP
(гПа)
Po
(мм)
O2
(г/м3)
Тmin Tmax R s Состояние
почвы
03 14.11.18 050 (СВ) 20000 м    8/0 средняя 
[Ac inh]
+6.7 -5.4 42 +8  1015  -0.6  759  299           
06 14.11.18 060 (СВ) 20000 м    8/0 средняя 
[Ac As]
+4.3 -5.3 50 +3  1015.9  0.9  760  302           
12 14.11.18 050 (СВ) 20000 м    6/0 средняя 
[Ac As]
+0.3 -6.7 59 1016.5  0.1  760  307           
15 14.11.18 050 (СВ) 20000 м    4/0 средняя 
[Ac trans]
-2 -7 69 -3  1015.8  -0.8  759  309           
18 14.11.18 060 (СВ) 20000 м    4/0 средняя 
[Ac trans]
-5.2 -8.1 80 -7  1015.2  -0.6  759  313           
03 15.11.18 050 (СВ) 20000 м    8/0 верхняя 
[Ci]
+4.5 -9.1 36 +4  1012.2  -1.8  757  301           
06 15.11.18 020 (С) 20000 м    8/0 верхняя 
[Ci]
+0.2 -7.7 55 -1  1011.9  -1.8  757  305           
12 15.11.18 030 (СВ) 20000 м    3/0 верхняя 
[Ci fib]
-4.7 -9.1 71 -6  1011  -0.3  756  311           
15 15.11.18 010 (С) 20000 м    3/0 верхняя 
[Ci fib]
-7.4 -10.6 78 -7  1010.1  -1  755  314           
18 15.11.18 040 (СВ) 20000 м    3/0 верхняя 
[Ci fib]
-12 -13.5 89 -12  1010.4  0.2  755  320           
00 16.11.18 тихо ()   20000 м    3/0 верхняя 
[Ci fib]
-6.1 -10.8 69 -6  1010.1  0.3  755  312           
03 16.11.18 320 (СЗ) 20000 м    3/0 верхняя 
[Ci fib]
-0.2 -10 48 -1  1009.1  -0.9  754  305           
06 16.11.18 тихо ()   20000 м    3/1 600 м верхняя 
[Sc|Ci fib]
-3.7 -9.4 65 -4  1009.5  0.4  755  309           
12 16.11.18 080 (В) 20000 м    3/0 верхняя 
[Ci fib]
-12 -13.5 89 -12  1011  0.7  756  320           
15 16.11.18 110 (В) 20000 м    3/0 верхняя 
[Ci fib]
-12.4 -14 88 -12  1011.4  0.4  756  320           
18 16.11.18 060 (СВ) 20000 м    4/0 верхняя 
[Ci fib]
-8.2 -10 87 -8  1011.8  0.5  756  315           
00 17.11.18 150 (ЮВ) 10 км    9/9 300 м 
[Sc]
-0 -4.7 71 -2  1011.9  757  305           
03 17.11.18 140 (ЮВ) 10 км    10/10 600 м 
[Sc]
+1.7 -3.3 69 1010.4  -1.4  755  303           
06 17.11.18 140 (ЮВ) 20000 м    10/3 600 м средняя 
[Sc|Ac und]
+1.3 -3.2 72 -1  1009.6  -1.4  755  303           
09 17.11.18 140 (ЮВ) 4000 м  слаб. ливневой снег  10/10 300 м кучево-дожд. 
[Cb cap]
+0.7 -2.3 80 -1  1009.2  -0.4  755  304    +1.9  0.3     
12 17.11.18 140 (ЮВ) 4000 м  слаб. ливневой снег  10/10 300 м кучево-дожд. 
[Cb cap]
+1.5 -0.1 89 1008  -1.2  754  302           
15 17.11.18 110 (В) 10 км  {ливн. осадки}  10/10 600 м 
[Sc]
+2.4 +0.5 87 +1  1005.7  -2.3  752  300           
18 17.11.18 100 (В) 10 км  слаб. ливневой дождь  10/10 300 м кучево-дожд. 
[Cb cap]
+1.9 +1 94 1002.8  -2.3  750  300           
21 17.11.18 120 (ЮВ) 10 км  слаб. ливневой дождь  10/10 300 м кучево-дожд. 
[Cb cap]
+2.5 +1.2 91 +2  999.1  -3.7  747  298  +0.4    15  мокрый или
старый снег
50-90% 
09 18.11.18 210 (ЮЗ) 4{10}  4000 м  слаб. ливневой снег  10/10 300 м кучево-дожд. 
[Cb cap]
+0.8 -4.5 68 -2  1003.5  1.7  750  302    +3.7  10     
Время (UTC), дата Ветер
(°,м/с) 
Видим.   Явления Облачность Т
(°С)
Тd
(°С)
f(%) Тe
(°С)
Pmin
(гПа)
dP
(гПа)
Po
(мм)
O2
(г/м3)
Тmin Tmax R s Состояние
почвы

Для получения пояснительной информации подведите курсор к названию столбца.

ПОГОДА Соболево - архив

Всё, что Вы хотите узнать о погоде Соболево - удобно и подробно!

Выберите нужную дату (начиная с 1 января 2015* года) и нажмите кнопку "Найти".
Будут отображены архивные сводки погоды по пункту Соболево, начиная с указанной даты.


Отображать данные в формате CSV (для использования в таблицах Excel)


Внимание! Наш архив погоды предназначен исключительно для личного некоммерческого использования в познавательных целях. Если Вам необходимы официальные справки о состоянии погоды (для производственных, юридических, коммерческих и т.п. целей), обращайтесь в органы Росгидромета.

*Примечание: данная дата относится к архиву по метеостанциям СССР (Россия, СНГ, Балтия).
Архив по метеостанциям Зарубежной Европы и Азии (кроме Китая) хранится 10 дней, по другим регионам земного шара (Китай, Африка, Америка, Австралия, Океания) - 1 день.

Соболево - район местоположения метеостанции


Название, широта, долгота, высота метеостанции:
Соболево 54.30°ш. 155.93°д. 14 м над ур. моря [Российская Федерация]

Дополнительная информация

В oтличие oт бoльшинства пoгoдных сайтoв мы публикуем пoдрoбную метеoинфoрмацию в детальнoм прoфессиoнальнoм фoрмате.

Характеристики температуры и влажнoсти вoздуха измеряются на высoте 2 м в тени вдали oт зданий и деревьев.
Скoрoсть ветра измеряется на высoте 10 м (на урoвне рoста челoвека скoрoсть ветра ниже в 1.5-2 раза). Если метеoстанция нахoдится в гoрoде или в лесу, тo скoрoсть ветра занижена на 2-4 м/с пo сравнению с oткрытым местoм. Скoрoсть ветра над акватoриями крупных рек и oзёр, а также на вершинах хoлмoв на 2-5 м/с выше, чем в oбычных услoвиях.
Атмoсфернoе давление в разных тoчках местнoсти мoжет значительнo oтличаться oт давления на метеoстанции, в зависимoсти oт услoвий рельефа (при пoдъёме на 10 м давление пoнижается примернo на 1 мм рт.ст.).